Regional Weather Roundup
Issued by NWS

Home | Current Version | Previous Version | Graphics & Text | Print | Product List | Glossary On
Versions: 1 2 3 4 5 6 7 8 9 10 11 12 13 14 15 16 17 18 19 20 21 22 23 24 25 26 27 28 29 30 31 32 33 34 35 36 37 38 39 40 41 42 43 44 45 46 47 48 49 50
000
ASUS45 KABQ 181901
RWRNM
WEATHER ROUNDUP FOR NEW MEXICO
NATIONAL WEATHER SERVICE ALBUQUERQUE NM
100 PM MDT THU SEP 18 2014

NOTE: "FAIR" MEANS FEW OR NO CLOUDS BELOW 12,000 FEET AGL WITH NO
       SIGNIFICANT WEATHER OR OBSTRUCTIONS TO VISION.

      THIS PRODUCT IS RELEASED AS TWO VERSIONS.  ONE VERSION NEAR
      THE TOP OF THE HOUR CONTAINING PRELIMINARY DATA FROM ALBUQUERQUE
      AND OTHER STATIONS.  A FINAL VERSION WITH ADDITIONAL DATA IS
      ISSUED ABOUT 10 MINUTES AFTER THE HOUR.

NMZ501-503-504-510>518-182000-
NORTHWEST PLATEAU/NORTHCENTRAL MOUNTAINS

CITY           SKY/WX    TMP DP  RH WIND       PRES   REMARKS
FARMINGTON     SUNNY     79  42  26 S6        30.04F
LOS ALAMOS     SUNNY     75  32  20 E5        30.16F
SANTA FE       SUNNY     79  37  22 S7        30.09F
TAOS           SUNNY     79  32  18 SE22      30.14F
ANGEL FIRE     FAIR      72  22  15 E14G22    30.27S

$$
NMZ402-403-502-505>509-182000-
WESTCENTRAL MOUNTAINS/SOUTHWEST MOUNTAINS

CITY           SKY/WX    TMP DP  RH WIND       PRES   REMARKS
GALLUP         CLOUDY    71  47  42 NW3       30.11F
GRANTS         SUNNY     75  45  33 SE12G18   30.13F
SILVER CITY    LGT RAIN  61  59  94 E10       30.07F

$$
NMZ407-409-411-412-182000-
SOUTHERN DESERTS

CITY           SKY/WX    TMP DP  RH WIND       PRES   REMARKS
LORDSBURG      RAIN      64  63  94 MISG      29.98S
DEMING         RAIN      64  62  93 E14       30.00F FOG
LAS CRUCES     CLOUDY    64  62  94 NE6       30.03S
HOLLOMAN AFB   LGT RAIN  66  64  94 CALM      30.01F
ALAMOGORDO     LGT RAIN  66  64  94 NW3       30.03S
T OR C         CLOUDY    67  62  84 S9        30.04F

$$
NMZ519>523-182000-
CENTRAL VALLEYS/CENTRAL HIGHLANDS

CITY           SKY/WX    TMP DP  RH WIND       PRES   REMARKS
ALBUQUERQUE    MOSUNNY   77  49  37 CALM      30.05F
DOUBLE EAGLE   MOSUNNY   77  46  33 VRB5      30.09F
CLINES CORNERS SUNNY     73  39  29 E18       30.15F
BELEN          FAIR      76  56  49 SW5       30.05F
SOCORRO        CLOUDY    71  61  70 E3        30.04F

$$
NMZ524>526-539-540-182000-
SOUTHCENTRAL MOUNTAINS

CITY           SKY/WX    TMP DP  RH WIND       PRES   REMARKS
RUIDOSO        NOT AVBL

$$
NMZ527>531-182000-
NORTHEAST HIGHLANDS/NORTHEAST PLAINS

CITY           SKY/WX    TMP DP  RH WIND       PRES   REMARKS
LAS VEGAS      SUNNY     77  36  22 NE13G24   30.15F
RATON          SUNNY     80  33  18 E17G23    30.11F
CLAYTON        SUNNY     77  55  46 E6        30.06F

$$
NMZ532>537-182000-
EASTCENTRAL PLAINS

CITY           SKY/WX    TMP DP  RH WIND       PRES   REMARKS
TUCUMCARI      MOSUNNY   78  60  53 SE22G29   30.01F
CANNON AFB     NOT AVBL
CLOVIS AIRPORT   N/A     66  63  88 SE14      30.08R

$$
NMZ028-029-538-182000-
SOUTHEAST PLAINS

CITY           SKY/WX    TMP DP  RH WIND       PRES   REMARKS
ROSWELL        PTSUNNY   76  63  64 S3        29.98F
CARLSBAD       CLOUDY    75  72  90 E6        29.97S
HOBBS          PTSUNNY   72  66  83 E6        30.02F


$$



USA.gov is the U.S. government's official web portal to all federal, state and local government web resources and services.